Location: eljas
(40.1958°N, 6.8661°W)
Time: 17:46:16
(UTC+01:00)

Amateur Radio Satellites - All Passes

Search period start: 08 February 2016 17:16
Search period end: 09 February 2016 17:16
Location: eljas, 40.1958°N, 6.8661°W

Satellite Date Start Highest point End Downlink Frequencies (MHz)
Time Altitude Azimuth
Cosmos 2504 08 Feb 17:20:36 17:29:11 59° 78° (ENE) 17:37:09 435.465 / 435.565
AO-7 08 Feb 17:29:08 17:36:39 37° 262° (W) 17:44:14 29.400- 29.500
CUTE-I 08 Feb 17:52:31 17:56:36 23° 64° (ENE) 18:00:42 437.470
MOZHAYETS 4 08 Feb 17:58:24 18:03:00 62° 286° (WNW) 18:07:34
LilacSat-2 08 Feb 18:01:11 18:03:26 15° 67° (ENE) 18:05:41 437.200
Cubesat XI-IV 08 Feb 18:05:07 18:09:39 29° 66° (ENE) 18:14:13 437.490
STARS 08 Feb 18:06:14 18:10:12 35° 290° (WNW) 18:14:09 437.465
BEESAT 3 08 Feb 18:10:52 18:14:09 25° 113° (ESE) 18:17:25 437.485
KKS-1 08 Feb 18:19:38 18:22:13 15° 296° (WNW) 18:24:48 437.445
BEESAT 2 08 Feb 18:31:44 18:35:08 27° 114° (ESE) 18:38:33 435.950
YUBILEINY 08 Feb 18:33:15 18:35:37 11° 287° (WNW) 18:38:00 435.215
ISS 08 Feb 18:34:05 18:37:09 37° 330° (NNW) 18:40:13 145.825
CUBESAT XI-V 08 Feb 18:34:24 18:38:37 32° 96° (E) 18:42:47 437.345
Cosmos 2491 08 Feb 18:34:29 18:41:14 25° 294° (WNW) 18:48:03 435.465 / 435.565
RS-15 08 Feb 18:48:40 18:57:22 22° 13° (NNE) 19:06:15 29.354- 29.394
GOMX 1 08 Feb 18:52:43 18:56:54 23° 67° (ENE) 19:00:58 467.674
O/OREOS (USA 219) 08 Feb 18:58:08 19:02:25 37° 62° (ENE) 19:06:41 437.305
BRITE-PL 08 Feb 19:14:10 19:19:50 68° 74° (ENE) 19:25:24 437.365/2234.400
Cosmos 2504 08 Feb 19:14:55 19:21:54 29° 278° (W) 19:28:32 435.465 / 435.565
AO-85 08 Feb 19:31:08 19:34:31 17° 38° (NE) 19:37:44 145.980
CUTE-I 08 Feb 19:31:14 19:36:19 46° 261° (W) 19:41:28 437.470
LilacSat-2 08 Feb 19:33:55 19:37:28 36° 262° (W) 19:41:01 437.200
HO-68 08 Feb 19:41:18 19:47:14 29° 61° (ENE) 19:53:12 435.675
Cubesat XI-IV 08 Feb 19:44:47 19:49:35 35° 263° (W) 19:54:28 437.490
CANX-2 08 Feb 19:45:51 19:48:09 15° 65° (ENE) 19:50:29 2200.000
BEESAT 3 08 Feb 19:48:18 19:51:47 28° 310° (NW) 19:55:18 437.485
CINEMA 3 08 Feb 19:51:46 19:54:12 14° 65° (ENE) 19:56:35 145.822/145.860
GONETS M04 08 Feb 20:01:05 20:07:22 21° 64° (ENE) 20:13:38
PCSat 08 Feb 20:04:52 20:07:55 15° 42° (NE) 20:10:57 145.827
BEESAT 2 08 Feb 20:09:30 20:12:58 27° 310° (NW) 20:16:27 435.950
STRAND 1 08 Feb 20:10:16 20:15:05 38° 98° (E) 20:19:52 437.568
CUBESAT XI-V 08 Feb 20:11:59 20:15:51 26° 292° (WNW) 20:19:41 437.345
ISS 08 Feb 20:12:43 20:14:18 13° 349° (N) 20:15:55 145.825
AIST 2 08 Feb 20:13:10 20:16:56 34° 115° (ESE) 20:20:43 435.215
DOVE 4 08 Feb 20:19:07 20:24:17 80° 76° (ENE) 20:29:12 437.250
GOMX 1 08 Feb 20:29:27 20:34:41 46° 262° (W) 20:39:44 467.674
COMPASS 1 08 Feb 20:33:47 20:37:06 24° 69° (ENE) 20:40:27 437.405
CUTE 1.7 + AOD 2 08 Feb 20:34:49 20:38:48 44° 73° (ENE) 20:42:49 437.475
Cosmos 2499 08 Feb 20:36:17 20:40:11 14° 58° (ENE) 20:43:56 435.465 / 435.565
O/OREOS (USA 219) 08 Feb 20:38:09 20:41:33 21° 259° (W) 20:44:56 437.305
SEEDS 08 Feb 20:44:13 20:48:08 42° 73° (ENE) 20:52:06 437.485
PRISM 08 Feb 20:54:42 20:58:28 31° 97° (E) 21:02:11 437.425
BRITE-PL 08 Feb 20:55:10 20:58:41 17° 270° (W) 21:02:12 437.365/2234.400
RS-15 08 Feb 21:02:19 21:13:57 48° 45° (NE) 21:25:44 29.354- 29.394
AAUSAT CUBESAT 2 08 Feb 21:03:24 21:07:17 41° 72° (ENE) 21:11:12 437.432
AO-85 08 Feb 21:10:39 21:15:49 85° 238° (WSW) 21:20:30 145.980
ZACube-1 08 Feb 21:11:58 21:14:42 17° 66° (ENE) 21:17:25 437.345
CANX-2 08 Feb 21:19:33 21:23:36 48° 261° (W) 21:27:42 2200.000
FUNcube-1 08 Feb 21:21:28 21:24:35 20° 68° (ENE) 21:27:40 145.935
CINEMA 3 08 Feb 21:26:18 21:30:56 58° 260° (W) 21:35:22 145.822/145.860
HO-68 08 Feb 21:27:32 21:34:32 56° 259° (WSW) 21:41:36 435.675
CUBEBUG 2 08 Feb 21:44:22 21:48:44 80° 78° (ENE) 21:53:00 437.445
HUMSAT D 08 Feb 21:46:13 21:47:33 11° 64° (ENE) 21:48:53 437.325/437.525
PCSat 08 Feb 21:46:42 21:52:10 83° 61° (ENE) 21:57:35 145.827
UWE-3 08 Feb 21:48:40 21:52:55 63° 75° (ENE) 21:57:05 435.000/436.395/437.385
STRAND 1 08 Feb 21:49:51 21:54:03 26° 294° (WNW) 21:58:14 437.568
ISS 08 Feb 21:50:23 21:51:52 12° 10° (N) 21:53:21 145.825
AIST 2 08 Feb 21:52:04 21:55:29 24° 312° (NW) 21:58:55 435.215
Oscar 11 08 Feb 21:55:32 21:59:48 69° 75° (ENE) 22:04:05 145.826/435.025
GONETS M04 08 Feb 21:56:26 22:05:15 83° 265° (W) 22:14:05
DOVE 4 08 Feb 22:00:52 22:02:24 11° 270° (W) 22:03:56 437.250
COMPASS 1 08 Feb 22:09:03 22:12:34 27° 265° (W) 22:16:07 437.405
CUTE 1.7 + AOD 2 08 Feb 22:12:30 22:14:53 15° 268° (W) 22:17:16 437.475
SEEDS 08 Feb 22:21:36 22:24:03 15° 268° (W) 22:26:32 437.485
Cosmos 2499 08 Feb 22:26:36 22:35:06 72° 80° (E) 22:42:53 435.465 / 435.565
DELFI C3 08 Feb 22:29:50 22:33:48 89° 256° (WSW) 22:37:49 145.870
PRISM 08 Feb 22:30:27 22:33:35 21° 293° (WNW) 22:36:43 437.425
AAUSAT CUBESAT 2 08 Feb 22:40:34 22:42:58 15° 268° (W) 22:45:24 437.432
ZACube-1 08 Feb 22:46:44 22:50:42 39° 262° (W) 22:54:39 437.345
AIST 1 08 Feb 22:50:48 22:54:54 39° 77° (ENE) 22:58:56
UNISAT 6 08 Feb 22:54:07 22:56:45 16° 93° (E) 22:59:23 437.425
VELOX 1 08 Feb 22:55:17 22:57:51 15° 64° (ENE) 23:00:24 145.980
FUNcube-1 08 Feb 22:56:52 23:00:39 32° 263° (W) 23:04:24 145.935
50 SAT 08 Feb 23:02:39 23:05:07 17° 67° (ENE) 23:07:36 437.505
AISAT 08 Feb 23:10:35 23:14:05 23° 67° (ENE) 23:17:34 437.250
RS-15 08 Feb 23:15:00 23:26:47 58° 248° (WSW) 23:38:39 29.354- 29.394
HUMSAT D 08 Feb 23:18:39 23:22:41 59° 259° (W) 23:26:44 437.325/437.525
ESTCUBE 1 08 Feb 23:25:35 23:29:40 34° 70° (ENE) 23:33:46 437.505/2401.250
ISS 08 Feb 23:26:04 23:29:05 33° 29° (NNE) 23:32:05 145.825
UWE-3 08 Feb 23:29:10 23:29:45 10° 270° (W) 23:30:21 435.000/436.395/437.385
UKube-1 08 Feb 23:31:31 23:35:23 32° 70° (ENE) 23:39:16 .
PCSat 08 Feb 23:32:40 23:34:46 12° 258° (WSW) 23:36:53 145.827
CUBEBUG 1 08 Feb 23:34:16 23:38:11 31° 70° (ENE) 23:42:06 437.445
ANTELSAT 08 Feb 23:37:55 23:42:07 48° 100° (E) 23:46:23 437.575/2403.000
DX 1 08 Feb 23:40:23 23:44:36 48° 72° (ENE) 23:48:51 434.975-435.025
SPROUT 08 Feb 23:45:10 23:47:31 15° 64° (ENE) 23:49:52 437.525
TIGRISAT 08 Feb 23:45:19 23:49:33 55° 100° (E) 23:53:52 435.000
GONETS M04 08 Feb 23:56:08 00:00:37 15° 284° (WNW) 00:05:07
POPSAT HIP 1 08 Feb 23:56:13 23:58:59 17° 93° (E) 00:01:44 437.405
NANOSAT C BR1 09 Feb 00:01:41 00:04:42 19° 94° (E) 00:07:43 145.865
DUCHIFAT 1 09 Feb 00:03:47 00:06:49 19° 94° (E) 00:09:49 145.980
QB50P1 09 Feb 00:08:29 00:11:54 24° 95° (E) 00:15:18 145.935-145.965
Cosmos 2499 09 Feb 00:21:17 00:27:12 22° 281° (W) 00:32:50 435.465 / 435.565
AIST 1 09 Feb 00:29:27 00:32:08 16° 274° (W) 00:34:48
VELOX 1 09 Feb 00:29:31 00:33:53 53° 260° (W) 00:38:16 145.980
UNISAT 6 09 Feb 00:29:33 00:33:40 44° 288° (WNW) 00:37:50 437.425
50 SAT 09 Feb 00:35:40 00:38:56 29° 263° (W) 00:42:14 437.505
AISAT 09 Feb 00:46:20 00:50:22 33° 262° (W) 00:54:26 437.250
POLYITAN 1 09 Feb 00:59:52 01:04:05 84° 284° (WNW) 01:08:18 437.675
QB50P2 09 Feb 01:00:37 01:04:50 80° 283° (WNW) 01:09:02 145.880/145.840
ISS 09 Feb 01:02:39 01:05:27 27° 226° (SW) 01:08:15 145.825
ESTCUBE 1 09 Feb 01:03:03 01:06:32 22° 266° (W) 01:10:04 437.505/2401.250
UKube-1 09 Feb 01:08:10 01:11:29 21° 265° (W) 01:14:49 .
CUBEBUG 1 09 Feb 01:10:56 01:14:28 23° 265° (W) 01:18:02 437.445
BUGSAT 1 09 Feb 01:11:03 01:15:04 59° 101° (E) 01:19:01 437.445
ANTELSAT 09 Feb 01:15:54 01:18:28 16° 295° (WNW) 01:21:03 437.575/2403.000
DX 1 09 Feb 01:18:36 01:21:04 15° 268° (W) 01:23:31 434.975-435.025
SPROUT 09 Feb 01:18:52 01:23:04 51° 260° (W) 01:27:16 437.525
TIGRISAT 09 Feb 01:23:39 01:25:48 14° 296° (WNW) 01:27:59 435.000
CUSAT 1 09 Feb 01:26:09 01:29:32 13° 78° (ENE) 01:32:56 437.405
ITUPSAT 1 09 Feb 01:29:39 01:32:21 15° 62° (ENE) 01:35:04 437.325
POPSAT HIP 1 09 Feb 01:31:02 01:34:55 37° 289° (WNW) 01:38:47 437.405
TISAT 1 09 Feb 01:33:18 01:37:32 85° 76° (ENE) 01:41:47 437.305
RS-15 09 Feb 01:35:38 01:36:29 10° 268° (W) 01:37:20 29.354- 29.394
NANOSAT C BR1 09 Feb 01:36:45 01:40:32 33° 289° (WNW) 01:44:17 145.865
BEESAT 09 Feb 01:38:24 01:41:41 19° 64° (ENE) 01:44:59 436.000
DUCHIFAT 1 09 Feb 01:38:51 01:42:36 33° 289° (WNW) 01:46:20 145.980
QB50P1 09 Feb 01:44:06 01:47:39 27° 291° (WNW) 01:51:12 145.935-145.965
DANDE 09 Feb 01:49:07 01:50:53 11° 74° (ENE) 01:52:41 436.750
Oscar 19 09 Feb 01:56:09 01:59:51 20° 93° (E) 02:03:31 437.125/150
PHONESAT 2.4 09 Feb 01:56:47 01:58:49 16° 149° (SSE) 02:00:53 2401.200-2431.200
Gurwin Techsat 1B 09 Feb 02:17:37 02:19:10 11° 89° (E) 02:20:44 435.225
SWISSCUBE 09 Feb 02:28:50 02:33:32 65° 74° (ENE) 02:38:17 437.505
BEESAT 3 09 Feb 02:29:16 02:31:40 15° 44° (NE) 02:34:04 437.485
Cosmos 2491 09 Feb 02:46:21 02:54:08 34° 71° (ENE) 03:01:53 435.465 / 435.565
BUGSAT 1 09 Feb 02:48:43 02:49:55 11° 297° (WNW) 02:51:08 437.445
BEESAT 2 09 Feb 02:50:49 02:53:26 17° 45° (NE) 02:56:03 435.950
ITAMSAT 1 09 Feb 03:02:19 03:05:30 16° 92° (E) 03:08:42 435.822/435.867
CUSAT 1 09 Feb 03:02:39 03:10:25 70° 95° (E) 03:18:28 437.405
ITUPSAT 1 09 Feb 03:04:59 03:09:40 60° 259° (W) 03:14:25 437.325
JAS-2 09 Feb 03:05:33 03:11:13 61° 101° (E) 03:16:23 435.910
BEESAT 09 Feb 03:14:32 03:19:06 47° 260° (W) 03:23:43 436.000
DANDE 09 Feb 03:24:37 03:31:59 61° 93° (E) 03:40:18 436.750
MOZHAYETS 4 09 Feb 03:25:39 03:27:24 12° 62° (ENE) 03:29:09
STARS 09 Feb 03:27:09 03:30:06 18° 65° (ENE) 03:33:04 437.465
PHONESAT 2.4 09 Feb 03:32:28 03:35:42 58° 164° (SSE) 03:38:56 2401.200-2431.200
Oscar 19 09 Feb 03:34:29 03:39:24 47° 289° (WNW) 03:44:17 437.125/150
YUBILEINY 09 Feb 03:36:49 03:44:01 30° 83° (E) 03:51:15 435.215
KKS-1 09 Feb 03:39:07 03:43:20 43° 71° (ENE) 03:47:34 437.445
AO-7 09 Feb 03:40:28 03:44:35 14° 89° (E) 03:48:37 29.400- 29.500
Gurwin Techsat 1B 09 Feb 03:54:23 03:59:44 84° 286° (WNW) 04:05:03 435.225
BEESAT 3 09 Feb 04:05:53 04:09:46 56° 242° (WSW) 04:13:36 437.485
SWISSCUBE 09 Feb 04:09:46 04:11:46 12° 270° (W) 04:13:48 437.505
BEESAT 2 09 Feb 04:27:45 04:31:38 51° 242° (WSW) 04:35:28 435.950
AIST 2 09 Feb 04:35:15 04:38:28 21° 47° (NE) 04:41:39 435.215
ITAMSAT 1 09 Feb 04:40:12 04:45:21 60° 288° (WNW) 04:50:29 435.822/435.867
Cosmos 2491 09 Feb 04:42:52 04:51:13 52° 271° (W) 04:59:36 435.465 / 435.565
CUSAT 1 09 Feb 04:46:46 04:53:19 27° 293° (WNW) 04:59:58 437.405
JAS-2 09 Feb 04:51:59 04:55:39 18° 301° (WNW) 04:59:08 435.910
HORYU 2 09 Feb 04:58:42 05:01:41 17° 93° (E) 05:04:39 437.375
MOZHAYETS 4 09 Feb 04:59:25 05:03:57 71° 258° (WSW) 05:08:33
STARS 09 Feb 05:01:59 05:06:10 42° 261° (W) 05:10:21 437.465
DANDE 09 Feb 05:08:45 05:15:28 31° 293° (WNW) 05:22:48 436.750
PHONESAT 2.4 09 Feb 05:09:40 05:12:57 82° 360° (N) 05:16:14 2401.200-2431.200
KKS-1 09 Feb 05:17:12 05:20:06 17° 267° (W) 05:23:01 437.445
AO-7 09 Feb 05:30:09 05:38:31 80° 107° (ESE) 05:46:49 29.400- 29.500
YUBILEINY 09 Feb 05:31:38 05:40:13 58° 282° (WNW) 05:48:56 435.215
CUBESAT XI-V 09 Feb 05:37:11 05:41:13 30° 69° (ENE) 05:45:18 437.345
Gurwin Techsat 1B 09 Feb 05:37:18 05:38:50 11° 302° (WNW) 05:40:22 435.225
M-CUBED/EXP-1 PRIME 09 Feb 05:40:43 05:44:03 59° 107° (ESE) 05:47:35 437.505
AUBIESAT-1 09 Feb 05:51:37 05:55:02 68° 108° (ESE) 05:58:37 437.475
Cosmos 2504 09 Feb 05:56:50 06:04:56 51° 89° (E) 06:13:24 435.465 / 435.565
AIST 2 09 Feb 06:13:14 06:17:06 38° 244° (WSW) 06:20:54 435.215
SO-50 09 Feb 06:23:22 06:28:12 63° 119° (ESE) 06:33:06 436.795
Cubesat XI-IV 09 Feb 06:24:51 06:26:34 11° 89° (E) 06:28:17 437.490
HORYU 2 09 Feb 06:34:14 06:38:25 41° 289° (WNW) 06:42:35 437.375
PHONESAT 2.4 09 Feb 06:46:59 06:50:12 57° 197° (SSW) 06:53:25 2401.200-2431.200
LilacSat-2 09 Feb 07:08:12 07:11:13 22° 95° (E) 07:14:14 437.200
CUBESAT XI-V 09 Feb 07:14:35 07:18:33 27° 265° (W) 07:22:35 437.345
BRITE-PL 09 Feb 07:21:27 07:24:58 20° 91° (E) 07:28:16 437.365/2234.400
AO-7 09 Feb 07:24:09 07:30:24 24° 306° (NW) 07:36:38 29.400- 29.500
STRAND 1 09 Feb 07:25:30 07:30:26 52° 72° (ENE) 07:35:24 437.568
YUBILEINY 09 Feb 07:37:43 07:39:15 10° 305° (NW) 07:40:47 435.215
PRISM 09 Feb 07:44:07 07:47:21 22° 67° (ENE) 07:50:36 437.425
CUTE-I 09 Feb 07:48:29 07:53:53 75° 103° (ESE) 07:59:15 437.470
Cosmos 2504 09 Feb 07:50:50 07:58:32 36° 289° (WNW) 08:06:34 435.465 / 435.565
Cubesat XI-IV 09 Feb 08:01:51 08:07:16 84° 285° (WNW) 08:12:39 437.490
SO-50 09 Feb 08:05:28 08:09:08 20° 317° (NW) 08:12:49 436.795
DOVE 4 09 Feb 08:20:02 08:23:05 19° 93° (E) 08:26:04 437.250
PHONESAT 2.4 09 Feb 08:25:06 08:27:04 15° 212° (SSW) 08:29:02 2401.200-2431.200
GOMX 1 09 Feb 08:32:24 08:36:48 56° 100° (E) 08:40:57 467.674
LilacSat-2 09 Feb 08:42:28 08:45:28 23° 290° (WNW) 08:48:28 437.200
HO-68 09 Feb 08:56:08 09:02:21 30° 96° (E) 09:08:29 435.675
BRITE-PL 09 Feb 08:59:13 09:03:38 37° 290° (WNW) 09:07:44 437.365/2234.400
GONETS M04 09 Feb 09:02:43 09:09:05 23° 80° (E) 09:15:27
CANX-2 09 Feb 09:05:16 09:09:01 29° 96° (E) 09:12:45 2200.000
STRAND 1 09 Feb 09:06:29 09:09:54 18° 268° (W) 09:13:20 437.568
O/OREOS (USA 219) 09 Feb 09:09:42 09:13:59 47° 107° (ESE) 09:18:20 437.305
PRISM 09 Feb 09:18:53 09:22:31 29° 263° (W) 09:26:12 437.425
CINEMA 3 09 Feb 09:21:50 09:25:32 30° 97° (E) 09:29:14 145.822/145.860
CUTE-I 09 Feb 09:30:18 09:33:16 15° 300° (WNW) 09:36:14 437.470
CUBEBUG 2 09 Feb 09:36:49 09:39:26 16° 93° (E) 09:42:03 437.445
UWE-3 09 Feb 09:40:33 09:42:21 12° 91° (E) 09:44:10 435.000/436.395/437.385
Cubesat XI-IV 09 Feb 09:44:46 09:46:28 11° 302° (WNW) 09:48:11 437.490
Oscar 11 09 Feb 09:45:02 09:47:05 13° 91° (E) 09:49:09 145.826/435.025
COMPASS 1 09 Feb 09:51:48 09:55:53 47° 99° (E) 09:59:58 437.405
UNISAT 6 09 Feb 09:53:28 09:55:37 14° 64° (ENE) 09:57:46 437.425
CUTE 1.7 + AOD 2 09 Feb 09:55:43 10:00:01 84° 285° (WNW) 10:04:19 437.475
DOVE 4 09 Feb 09:57:07 10:00:55 32° 290° (WNW) 10:04:36 437.250
SEEDS 09 Feb 10:03:57 10:08:14 89° 274° (W) 10:12:30 437.485
DELFI C3 09 Feb 10:10:17 10:12:02 12° 91° (E) 10:13:48 145.870
GOMX 1 09 Feb 10:12:15 10:14:20 13° 298° (WNW) 10:16:23 467.674
AAUSAT CUBESAT 2 09 Feb 10:21:23 10:25:37 86° 97° (E) 10:29:49 437.432
ZACube-1 09 Feb 10:35:15 10:39:10 36° 98° (E) 10:43:07 437.345
ANTELSAT 09 Feb 10:36:22 10:40:23 39° 72° (ENE) 10:44:22 437.575/2403.000
CANX-2 09 Feb 10:41:19 10:44:45 24° 292° (WNW) 10:48:10 2200.000
HO-68 09 Feb 10:43:21 10:50:15 51° 293° (WNW) 10:57:08 435.675
TIGRISAT 09 Feb 10:43:29 10:47:36 44° 73° (ENE) 10:51:40 435.000
FUNcube-1 09 Feb 10:44:45 10:48:49 45° 99° (E) 10:52:55 145.935
PCSat 09 Feb 10:49:19 10:50:21 11° 101° (ESE) 10:51:23 145.827
POPSAT HIP 1 09 Feb 10:49:21 10:51:19 13° 64° (ENE) 10:53:18 437.405
O/OREOS (USA 219) 09 Feb 10:50:39 10:53:40 17° 304° (NW) 10:56:42 437.305
NANOSAT C BR1 09 Feb 10:54:19 10:56:37 15° 64° (ENE) 10:58:56 145.865
DUCHIFAT 1 09 Feb 10:56:11 10:58:29 15° 65° (ENE) 11:00:48 145.980
GONETS M04 09 Feb 10:56:21 11:04:59 71° 280° (W) 11:13:43
CINEMA 3 09 Feb 10:59:27 11:02:31 20° 292° (WNW) 11:05:35 145.822/145.860
Cosmos 2499 09 Feb 11:00:31 11:08:59 61° 91° (E) 11:17:42 435.465 / 435.565
QB50P1 09 Feb 11:01:06 11:03:57 18° 66° (ENE) 11:06:48 145.935-145.965
HUMSAT D 09 Feb 11:03:10 11:06:25 22° 95° (E) 11:09:41 437.325/437.525
CUBEBUG 2 09 Feb 11:12:19 11:16:13 39° 288° (WNW) 11:20:11 437.445
UWE-3 09 Feb 11:15:02 11:19:06 52° 286° (WNW) 11:23:15 435.000/436.395/437.385
Oscar 11 09 Feb 11:19:17 11:23:31 53° 286° (WNW) 11:27:45 145.826/435.025
AIST 1 09 Feb 11:19:52 11:23:25 24° 89° (E) 11:26:58
AO-85 09 Feb 11:23:34 11:28:31 41° 114° (ESE) 11:33:39 145.980
UNISAT 6 09 Feb 11:27:39 11:31:54 54° 260° (W) 11:36:07 437.425
RS-15 09 Feb 11:28:10 11:36:35 26° 101° (E) 11:45:15 29.354- 29.394
COMPASS 1 09 Feb 11:28:40 11:31:04 15° 295° (WNW) 11:33:28 437.405
DELFI C3 09 Feb 11:43:18 11:47:12 48° 287° (WNW) 11:51:07 145.870
POLYITAN 1 09 Feb 11:51:42 11:55:55 66° 74° (ENE) 12:00:07 437.675
QB50P2 09 Feb 11:52:23 11:56:36 70° 76° (ENE) 12:00:50 145.880/145.840
BUGSAT 1 09 Feb 12:00:06 12:04:00 38° 72° (ENE) 12:07:53 437.445
50 SAT 09 Feb 12:07:39 12:10:48 24° 96° (E) 12:13:56 437.505
ZACube-1 09 Feb 12:12:18 12:15:13 18° 293° (WNW) 12:18:09 437.345
ANTELSAT 09 Feb 12:14:23 12:17:15 17° 267° (W) 12:20:06 437.575/2403.000
VELOX 1 09 Feb 12:20:32 12:24:25 29° 97° (E) 12:28:14 145.980
TIGRISAT 09 Feb 12:22:00 12:24:31 15° 268° (W) 12:27:01 435.000
FUNcube-1 09 Feb 12:22:14 12:24:43 15° 294° (WNW) 12:27:12 145.935
POPSAT HIP 1 09 Feb 12:22:28 12:26:39 55° 260° (W) 12:30:49 437.405
PCSat 09 Feb 12:27:27 12:32:52 87° 120° (ESE) 12:38:20 145.827
NANOSAT C BR1 09 Feb 12:27:51 12:31:57 49° 260° (W) 12:36:04 145.865
DUCHIFAT 1 09 Feb 12:29:42 12:33:48 49° 260° (W) 12:37:54 145.980
QB50P1 09 Feb 12:35:28 12:39:26 38° 262° (W) 12:43:25 145.935-145.965
AISAT 09 Feb 12:36:46 12:41:02 46° 99° (E) 12:45:14 437.250
HUMSAT D 09 Feb 12:38:27 12:42:04 29° 290° (WNW) 12:45:43 437.325/437.525
UKube-1 09 Feb 12:54:38 12:58:57 64° 101° (ESE) 13:03:13 .
ESTCUBE 1 09 Feb 12:54:48 12:59:22 82° 102° (ESE) 13:03:54 437.505/2401.250
Cosmos 2499 09 Feb 12:55:10 13:02:37 31° 291° (WNW) 13:10:15 435.465 / 435.565
AIST 1 09 Feb 12:57:10 13:00:54 27° 285° (WNW) 13:04:39
CUBEBUG 1 09 Feb 12:59:04 13:03:26 67° 102° (ESE) 13:07:44 437.445
GONETS M04 09 Feb 12:59:41 13:03:35 13° 302° (WNW) 13:07:32
AO-85 09 Feb 13:04:20 13:09:10 32° 312° (NW) 13:14:06 145.980
DX 1 09 Feb 13:05:01 13:09:24 82° 284° (WNW) 13:13:44 434.975-435.025
SPROUT 09 Feb 13:05:54 13:09:33 27° 96° (E) 13:13:10 437.525
Oscar 19 09 Feb 13:12:14 13:16:37 28° 67° (ENE) 13:21:00 437.125/150
JAS-2 09 Feb 13:15:42 13:22:11 32° 65° (ENE) 13:28:13 435.910
TISAT 1 09 Feb 13:19:38 13:21:42 13° 92° (E) 13:23:44 437.305
RS-15 09 Feb 13:36:22 13:47:31 82° 303° (WNW) 13:59:21 29.354- 29.394
BUGSAT 1 09 Feb 13:36:45 13:39:31 17° 267° (W) 13:42:17 437.445
Gurwin Techsat 1B 09 Feb 13:37:09 13:40:47 19° 63° (ENE) 13:44:26 435.225
50 SAT 09 Feb 13:41:45 13:44:42 22° 291° (WNW) 13:47:40 437.505
CUSAT 1 09 Feb 13:42:30 13:48:11 41° 72° (ENE) 13:52:30 437.405
YUBILEINY 09 Feb 13:48:28 13:52:31 14° 58° (ENE) 13:56:33 435.215
VELOX 1 09 Feb 13:57:10 14:00:46 25° 292° (WNW) 14:04:21 145.980
DANDE 09 Feb 14:07:56 14:14:46 44° 71° (ENE) 14:20:02 436.750
PCSat 09 Feb 14:13:40 14:17:01 16° 317° (NW) 14:20:23 145.827
AISAT 09 Feb 14:14:22 14:17:08 17° 296° (WNW) 14:19:53 437.250
ITAMSAT 1 09 Feb 14:19:28 14:23:35 24° 65° (ENE) 14:27:43 435.822/435.867
SWISSCUBE 09 Feb 14:30:43 14:33:54 18° 93° (E) 14:37:05 437.505
UKube-1 09 Feb 14:32:47 14:34:27 12° 298° (WNW) 14:36:07 .
ESTCUBE 1 09 Feb 14:34:39 14:35:30 10° 299° (WNW) 14:36:21 437.505/2401.250
CUBEBUG 1 09 Feb 14:37:37 14:39:08 12° 298° (WNW) 14:40:40 437.445
AO-7 09 Feb 14:38:30 14:44:39 24° 53° (NE) 14:50:48 29.400- 29.500
SPROUT 09 Feb 14:41:57 14:45:25 25° 292° (WNW) 14:48:53 437.525
Oscar 19 09 Feb 14:51:06 14:55:48 34° 263° (W) 15:00:31 437.125/150
TISAT 1 09 Feb 14:53:36 14:57:37 47° 287° (WNW) 15:01:37 437.305
SO-50 09 Feb 14:55:39 15:00:19 47° 53° (NE) 15:04:50 436.795
JAS-2 09 Feb 14:59:20 15:06:53 54° 260° (W) 15:13:52 435.910
ITUPSAT 1 09 Feb 15:06:08 15:10:35 36° 98° (E) 15:14:59 437.325
BEESAT 09 Feb 15:15:01 15:19:38 45° 100° (E) 15:24:13 436.000
Gurwin Techsat 1B 09 Feb 15:15:04 15:20:16 56° 259° (W) 15:25:31 435.225
CUSAT 1 09 Feb 15:25:41 15:29:51 21° 278° (W) 15:33:18 437.405
YUBILEINY 09 Feb 15:42:17 15:51:08 70° 80° (E) 15:59:54 435.215
Cosmos 2491 09 Feb 15:47:00 15:54:51 39° 86° (E) 16:02:42 435.465 / 435.565
DANDE 09 Feb 15:51:32 15:57:16 28° 277° (W) 16:01:55 436.750
Cosmos 2504 09 Feb 15:51:54 15:57:23 18° 61° (ENE) 16:02:39 435.465 / 435.565
RS-15 09 Feb 15:52:30 16:02:05 30° 331° (NNW) 16:12:08 29.354- 29.394
HORYU 2 09 Feb 15:56:51 15:59:33 16° 64° (ENE) 16:02:16 437.375
ITAMSAT 1 09 Feb 15:57:56 16:02:49 41° 262° (W) 16:07:43 435.822/435.867
ISS 09 Feb 16:07:06 16:08:27 12° 129° (SE) 16:09:49 145.825
SWISSCUBE 09 Feb 16:07:19 16:11:56 48° 288° (WNW) 16:16:33 437.505
M-CUBED/EXP-1 PRIME 09 Feb 16:27:28 16:31:11 75° 71° (ENE) 16:34:39 437.505
AO-7 09 Feb 16:28:05 16:36:28 83° 252° (WSW) 16:44:54 29.400- 29.500
SO-50 09 Feb 16:37:01 16:40:26 20° 250° (WSW) 16:43:46 436.795
AUBIESAT-1 09 Feb 16:37:57 16:41:38 83° 74° (ENE) 16:45:06 437.475
ITUPSAT 1 09 Feb 16:44:21 16:48:13 24° 294° (WNW) 16:52:03 437.325
STARS 09 Feb 16:51:55 16:55:55 34° 98° (E) 16:59:53 437.465
BEESAT 09 Feb 16:53:40 16:57:05 20° 295° (WNW) 17:00:29 436.000
MOZHAYETS 4 09 Feb 16:55:19 16:59:19 28° 96° (E) 17:03:18
KKS-1 09 Feb 17:06:46 17:11:13 85° 281° (W) 17:15:38 437.445
